紫金山彗星

C/2025 A3 ( Tsuchinshan )

English version
Home page
Updated on January 18, 2025

---------------------------------------------------------------------

・ プロフィール

発見日 2025年1月5日
発見光度 19.6等
発見者 China Near Earth Object Survey Telescope (CNEOST) search program, Xuyi Observatory of Purple Mountain Observatory (Tsuchinshan)

・ 軌道要素

Epoch 2024 Oct. 17.0 TT = JDT 2460600.5                                         
T 2026 May 5.29245 TT                                   Pike                    
q   5.6831795            (2000.0)            P               Q                  
n   0.02980663     Peri.  227.28110     -0.97872439     +0.17565655             
a  10.3021394      Node   322.46882     -0.09634703     -0.84972582             
e   0.4483496      Incl.   10.02382     -0.18115138     -0.49710241             
P  33.1                                                                         
From 32 observations 2024 Dec. 25-2025 Jan. 12, mean residual 0".4.             

・ 光度変化

        m1 = 8.5 + 5 logΔ + 10.0 log r

---------------------------------------------------------------------

軌道要素はM.P.E.C. 2025-A178に掲載されたものです。
光度グラフはComet for Windowsで作成したものです。

---------------------------------------------------------------------

Copyright(C) Seiichi Yoshida (comet@aerith.net). All rights reserved.